NOAA 16 DEB, 41255

Orbit data source: Space-Track

NOAA 16 DEB, 41255 is space debris in SSO originally from a launch on Thu, 21 Sep 2000 UTC launched from the Air Force Western Test Range (AFWTR). Debris objects in space refer to the collection of defunct objects orbiting the Earth. Examples of debris include non-operational satellites, rocket bodies, and fragments generated from explosions, collisions, or faulty payload assembly.

Loading next visibility...
Identifier
41255, 2000-055FF
Orbit
SSO
Country
Flag of USUS
Related business
Manufacturer
Unknown
Mission
Spacecraft
Bus & Motor
Unknown
Mass
Unknown
Launch date (UTC)
2000-09-21 (26 years ago)
Launch vehicle
Unknown
Launch site
Air Force Western Test Range (AFWTR)
Object type
Payload
Rocket body
Debris
Shape & HBR
Unknown shape, 0.1 m
Radar Cross Section
Medium (>0.1 m² and <1 m²)

Expand to show TLE details & history
Last TLE update: 1 day ago

TLE from 1 day ago
0 NOAA 16 DEB
1 41255U 00055FF  26235.87039315  .00008551  00000-0  17406-2 0  9990
2 41255  98.7711  28.0983 0029902 147.3357 212.9699 14.61021508559302
Epoch: 2026-08-23T20:53Z
TLE epoch observation values (Epoch: 2026-08-23T20:53:21.968Z)
Latitude
Longitude
102.59652°
Altitude
710.599 km
Speed
7.491 km/s
True Right ascension
01h 52m 23s
True Declination
0° 00' 00"
Sunlit
Object was in full shadow at epoch
Visualization orbit readout
Latitude
Unknown
Longitude
Unknown
Altitude
Unknown
Speed
Unknown
Apparent Right ascension
Unknown
Apparent Declination
Unknown
Sunlit
N/A
Visualization observer readout
Local Sidereal Time
12:09:41
Azimuth
Unknown
Elevation
Unknown
Doppler factor
Unknown
Orbital elements
Apogee altitude
708.111 km
Perigee altitude
665.858 km
Semi-major axis
7,065.122 km
Eccentricity
0.00299
Inclination
98.7711°
RAAN
28.0983°
Arg. of periapsis
147.3357°
True anomaly
212.78401°
Mean anomaly
212.9699°
Eccentric anomaly
212.8769°
Mean motion
3.6548 °/min
Orbital period
98.5 mins
BSTAR
0.0017406
Loading maneuver chart data...
Computing Atmospheric mass density...
Loading historical data...
Loading historical data...
Loading historical data...
Loading historical data...
Loading historical data...
Loading historical data...
Loading historical data...

Documentation

Showing up to 5 results
|